FREGAT DEB, 45849

Orbit data source: Space-Track

FREGAT DEB, 45849 is space debris in LEO originally from a launch on Mon, 18 Jul 2011 UTC launched from the Tyuratam Missile And Space Complex (TTMTR). Debris objects in space refer to the collection of defunct objects orbiting the Earth. Examples of debris include non-operational satellites, rocket bodies, and fragments generated from explosions, collisions, or faulty payload assembly.

Loading next visibility...
Identifier
45849, 2011-037CK
Orbit
LEO
Country
Flag of CISCIS
Related business
Manufacturer
Lavochkin
Mission
Spacecraft
Bus & Motor
Unknown
Mass
Unknown
Launch date (UTC)
2011-07-18 (15 years ago)
Launch vehicle
Unknown
Launch site
Tyuratam Missile And Space Complex (TTMTR)
Object type
Payload
Rocket body
Debris
Shape & HBR
Unknown shape, 0.1 m
Radar Cross Section
Medium (>0.1 m² and <1 m²)

Expand to show TLE details & history
Last TLE update: 2 months ago

TLE from 2 months ago
0 FREGAT DEB
1 45849U 11037CK  25339.49260473 -.00034431  00000-0 -85265-1 0  9993
2 45849  51.2972 266.5997 1706054 181.9447 177.3999 10.84073535215019
Epoch: 2025-12-05T11:49Z
TLE epoch observation values (Epoch: 2025-12-05T11:49:21.048Z)
Latitude
-0.00007°
Longitude
14.72803°
Altitude
3,716.285 km
Speed
5.725 km/s
True Right ascension
17h 46m 23s
True Declination
0° 00' 00"
Sunlit
Object was in daylight at epoch
Visualization orbit readout
Latitude
Unknown
Longitude
Unknown
Altitude
Unknown
Speed
Unknown
Apparent Right ascension
Unknown
Apparent Declination
Unknown
Sunlit
N/A
Visualization observer readout
Local Sidereal Time
01:13:40
Azimuth
Unknown
Elevation
Unknown
Doppler factor
Unknown
Orbital elements
Apogee altitude
3,717.414 km
Perigee altitude
774.74 km
Semi-major axis
8,624.214 km
Eccentricity
0.17061
Inclination
51.2972°
RAAN
266.5997°
Arg. of periapsis
181.9447°
True anomaly
178.13024°
Mean anomaly
177.3999°
Eccentric anomaly
177.77876°
Mean motion
2.70997 °/min
Orbital period
132.84 mins
BSTAR
-0.085265
Loading maneuver chart data...
Computing Atmospheric mass density...
Loading historical data...
Loading historical data...
Loading historical data...
Loading historical data...
Loading historical data...
Loading historical data...
Loading historical data...

Documentation

Showing up to 5 results
|